| time (UTC) | temp C | wind direction | speed KPH | gust KPH | rain 1hr cm | rain 24hr cm | rain mn cm | humidity % | barometer mb |
| 20260503024526 | 9 | 195 | 0.0 | 0.0 | 0.00 | 0.00 | 0.00 | 1 | 1010.5 |
| 20260503023022 | 9 | 195 | 0.0 | 0.0 | 0.00 | 0.00 | 0.00 | 1 | 1010.7 |
| 20260503021522 | 9 | 195 | 0.0 | 0.0 | 0.00 | 0.00 | 0.00 | 1 | 1010.8 |
| 20260503020015 | 9 | 195 | 0.0 | 0.0 | 0.00 | 0.00 | 0.00 | 1 | 1010.8 |
| 20260503014509 | 9 | 195 | 0.0 | 0.0 | 0.00 | 0.00 | 0.00 | 1 | 1011.0 |
| 20260503013005 | 9 | 195 | 0.0 | 0.0 | 0.00 | 0.00 | 0.00 | 1 | 1011.0 |
| 20260503011611 | 9 | 195 | 0.0 | 0.0 | 0.00 | 0.00 | 0.00 | 1 | 1011.0 |
| 20260503010056 | 10 | 195 | 0.0 | 0.0 | 0.00 | 0.00 | 0.00 | 1 | 1010.9 |
| 20260503004552 | 10 | 195 | 0.0 | 0.0 | 0.00 | 0.00 | 0.00 | 1 | 1010.7 |
| 20260503003051 | 10 | 195 | 0.0 | 0.0 | 0.00 | 0.00 | 0.00 | 1 | 1010.6 |
| 20260503001557 | 10 | 195 | 0.0 | 0.0 | 0.00 | 0.00 | 0.00 | 1 | 1010.6 |
| 20260503000042 | 10 | 195 | 0.0 | 0.0 | 0.00 | 0.00 | 0.00 | 1 | 1010.6 |
| 20260502234542 | 10 | 195 | 0.0 | 0.0 | 0.00 | 0.00 | 0.00 | 1 | 1010.6 |
| 20260502233033 | 10 | 195 | 0.0 | 0.0 | 0.00 | 0.00 | 0.00 | 1 | 1010.6 |
| 20260502231530 | 10 | 195 | 0.0 | 0.0 | 0.00 | 0.00 | 0.00 | 1 | 1010.7 |
| 20260502230032 | 10 | 195 | 0.0 | 0.0 | 0.00 | 0.00 | 0.00 | 1 | 1010.8 |
| 20260502224522 | 10 | 195 | 0.0 | 0.0 | 0.00 | 0.00 | 0.00 | 1 | 1010.9 |
| 20260502223018 | 10 | 195 | 0.0 | 0.0 | 0.00 | 0.00 | 0.00 | 1 | 1010.7 |
| 20260502221512 | 10 | 195 | 0.0 | 0.0 | 0.00 | 0.00 | 0.00 | 1 | 1010.7 |
| 20260502220007 | 10 | 195 | 0.0 | 0.0 | 0.00 | 0.00 | 0.00 | 1 | 1010.6 |
| 20260502214503 | 10 | 195 | 0.0 | 8.0 | 0.00 | 0.00 | 0.00 | 1 | 1010.7 |
| 20260502213100 | 10 | 188 | 0.0 | 6.4 | 0.00 | 0.00 | 0.00 | 1 | 1010.4 |
| 20260502211555 | 10 | 186 | 0.0 | 8.0 | 0.00 | 0.00 | 0.00 | 1 | 1010.6 |
| 20260502210104 | 10 | 209 | 0.0 | 4.8 | 0.00 | 0.00 | 0.00 | 1 | 1010.6 |
| 20260502204553 | 10 | 209 | 0.0 | 3.2 | 0.00 | 0.00 | 0.00 | 1 | 1010.8 |
| 20260502203042 | 10 | 198 | 0.0 | 4.8 | 0.00 | 0.00 | 0.00 | 1 | 1010.9 |
| 20260502201548 | 10 | 236 | 0.0 | 4.8 | 0.00 | 0.00 | 0.00 | 1 | 1011.0 |
| 20260502200032 | 10 | 192 | 0.0 | 6.4 | 0.00 | 0.00 | 0.00 | 1 | 1011.0 |
| 20260502194528 | 10 | 192 | 1.6 | 6.4 | 0.00 | 0.00 | 0.00 | 1 | 1011.1 |
| 20260502193025 | 10 | 245 | 1.6 | 11.3 | 0.00 | 0.00 | 0.00 | 1 | 1011.4 |
| 20260502191520 | 11 | 214 | 0.0 | 6.4 | 0.00 | 0.00 | 0.00 | 1 | 1011.4 |
| 20260502190016 | 11 | 180 | 3.2 | 9.7 | 0.00 | 0.00 | 0.00 | 1 | 1011.7 |
| 20260502184525 | 11 | 236 | 3.2 | 11.3 | 0.00 | 0.00 | 0.00 | 1 | 1011.9 |
| 20260502183024 | 10 | 223 | 3.2 | 17.7 | 0.00 | 0.00 | 0.00 | 1 | 1012.1 |
| 20260502181505 | 11 | 192 | 3.2 | 14.5 | 0.00 | 0.00 | 0.00 | 1 | 1011.9 |
| 20260502163107 | 11 | 222 | 0.0 | 6.4 | 0.00 | 0.00 | 0.00 | 1 | 1012.2 |
| 20260502161624 | 11 | 213 | 0.0 | 11.3 | 0.00 | 0.00 | 0.00 | 1 | 1012.2 |
| 20260502151545 | 11 | 125 | 1.6 | 9.7 | 0.00 | 0.00 | 0.00 | 1 | 1012.5 |
| 20260502123057 | 10 | 192 | 0.0 | 0.0 | 0.00 | 0.00 | 0.00 | 1 | 1013.1 |
| 20260502121555 | 10 | 192 | 0.0 | 9.7 | 0.00 | 0.00 | 0.00 | 1 | 1013.0 |
| 20260502114544 | 10 | 194 | 0.0 | 9.7 | 0.00 | 0.00 | 0.00 | 1 | 1012.8 |
| 20260502113038 | 9 | 276 | 0.0 | 11.3 | 0.00 | 0.00 | 0.00 | 1 | 1012.8 |
| 20260502111535 | 9 | 196 | 0.0 | 9.7 | 0.00 | 0.00 | 0.00 | 1 | 1012.7 |
| 20260502110034 | 8 | 237 | 0.0 | 8.0 | 0.00 | 0.00 | 0.00 | 1 | 1012.6 |
| 20260502104534 | 8 | 200 | 0.0 | 0.0 | 0.00 | 0.00 | 0.00 | 1 | 1012.7 |
| 20260502103040 | 8 | 200 | 0.0 | 0.0 | 0.00 | 0.00 | 0.00 | 1 | 1012.4 |
| 20260502101541 | 8 | 198 | 0.0 | 0.0 | 0.00 | 0.00 | 0.00 | 1 | 1012.3 |
| 20260502091514 | 7 | 233 | 0.0 | 6.4 | 0.00 | 0.00 | 0.00 | 1 | 1012.3 |
| 20260502070035 | 8 | 237 | 0.0 | 1.6 | 0.00 | 0.00 | 0.00 | 1 | 1012.1 |
| 20260502064532 | 8 | 237 | 0.0 | 0.0 | 0.00 | 0.00 | 0.00 | 1 | 1012.0 |
| 20260502063028 | 9 | 237 | 0.0 | 1.6 | 0.00 | 0.00 | 0.00 | 1 | 1012.2 |
| 20260502061522 | 9 | 236 | 0.0 | 6.4 | 0.00 | 0.00 | 0.00 | 1 | 1012.4 |
| 20260502060118 | 9 | 258 | 0.0 | 6.4 | 0.00 | 0.00 | 0.00 | 1 | 1012.3 |
| 20260502054514 | 9 | 273 | 0.0 | 6.4 | 0.00 | 0.00 | 0.00 | 1 | 1012.4 |
| 20260502053009 | 9 | 273 | 0.0 | 9.7 | 0.00 | 0.00 | 0.00 | 1 | 1012.7 |
| 20260502051505 | 8 | 206 | 0.0 | 3.2 | 0.00 | 0.00 | 0.00 | 1 | 1012.7 |
| 20260502050105 | 9 | 209 | 0.0 | 4.8 | 0.00 | 0.00 | 0.00 | 1 | 1012.6 |
| 20260502044556 | 9 | 236 | 0.0 | 1.6 | 0.00 | 0.00 | 0.00 | 1 | 1012.7 |
| 20260502043058 | 9 | 233 | 0.0 | 3.2 | 0.00 | 0.00 | 0.00 | 4 | 1012.6 |
| 20260502041605 | 9 | 232 | 0.0 | 0.0 | 0.00 | 0.00 | 0.00 | 7 | 1012.7 |
| 20260502040045 | 10 | 214 | 0.0 | 0.0 | 0.00 | 0.00 | 0.00 | 10 | 1012.7 |
| 20260502034538 | 10 | 214 | 0.0 | 11.3 | 0.00 | 0.00 | 0.00 | 10 | 1012.8 |
| 20260502033040 | 10 | 166 | 0.0 | 4.8 | 0.00 | 0.00 | 0.00 | 9 | 1012.8 |
| 20260502031530 | 10 | 159 | 0.0 | 3.2 | 0.00 | 0.00 | 0.00 | 9 | 1012.7 |
| 20260502030025 | 10 | 154 | 0.0 | 0.0 | 0.00 | 0.00 | 0.00 | 10 | 1012.7 |